TimeEST,TemperatureF,Dew PointF,Humidity,Sea Level PressureIn,VisibilityMPH,Wind Direction,Wind SpeedMPH,Gust SpeedMPH,PrecipitationIn,Events,Conditions,WindDirDegrees,DateUTC
12:53 AM,64.9,63.0,93,29.95,10.0,NE,4.6,-,N/A,,Clear,50,2012-12-07 05:53:00
1:53 AM,64.0,63.0,96,29.94,10.0,NE,5.8,-,N/A,,Clear,50,2012-12-07 06:53:00
2:53 AM,64.0,63.0,96,29.94,10.0,ENE,3.5,-,N/A,,Clear,60,2012-12-07 07:53:00
3:36 AM,62.6,62.6,100,29.93,2.0,Calm,Calm,-,N/A,,Clear,0,2012-12-07 08:36:00
3:46 AM,64.4,62.6,94,29.93,5.0,Calm,Calm,-,N/A,,Clear,0,2012-12-07 08:46:00
3:53 AM,63.0,62.1,97,29.94,2.0,Calm,Calm,-,N/A,,Clear,0,2012-12-07 08:53:00
3:58 AM,62.6,62.6,100,29.93,0.8,Calm,Calm,-,N/A,,Clear,0,2012-12-07 08:58:00
4:13 AM,62.6,62.6,100,29.93,2.0,Calm,Calm,-,N/A,,Clear,0,2012-12-07 09:13:00
4:22 AM,62.6,62.6,100,29.93,0.8,Calm,Calm,-,N/A,,Clear,0,2012-12-07 09:22:00
4:47 AM,62.6,60.8,94,29.93,2.0,Calm,Calm,-,N/A,,Clear,0,2012-12-07 09:47:00
4:48 AM,62.1,61.0,96,29.94,2.5,Calm,Calm,-,N/A,,Clear,0,2012-12-07 09:48:00
4:59 AM,62.6,62.6,100,29.93,5.0,Calm,Calm,-,N/A,,Clear,0,2012-12-07 09:59:00
5:50 AM,62.6,60.8,94,29.94,5.0,ENE,3.5,-,N/A,,Scattered Clouds,70,2012-12-07 10:50:00
5:53 AM,62.1,61.0,96,29.94,3.0,ENE,3.5,-,N/A,,Mostly Cloudy,70,2012-12-07 10:53:00
5:56 AM,62.6,62.6,100,29.94,1.8,ENE,4.6,-,N/A,,Mostly Cloudy,70,2012-12-07 10:56:00
6:09 AM,62.6,62.6,100,29.94,0.8,ENE,3.5,-,N/A,,Mist,60,2012-12-07 11:09:00
6:31 AM,62.6,62.6,100,29.94,2.0,NE,3.5,-,N/A,,Overcast,50,2012-12-07 11:31:00
6:39 AM,62.6,62.6,100,29.94,5.0,Calm,Calm,-,N/A,,Mostly Cloudy,0,2012-12-07 11:39:00
6:53 AM,62.1,61.0,96,29.96,8.0,East,3.5,-,N/A,,Partly Cloudy,80,2012-12-07 11:53:00
7:53 AM,63.0,62.1,97,29.97,9.0,East,4.6,-,N/A,,Clear,80,2012-12-07 12:53:00
8:53 AM,68.0,64.9,90,29.99,10.0,ENE,3.5,-,N/A,,Clear,60,2012-12-07 13:53:00
9:53 AM,73.0,66.0,79,30.00,10.0,East,8.1,-,N/A,,Clear,90,2012-12-07 14:53:00
10:53 AM,77.0,66.0,69,29.99,10.0,East,5.8,-,N/A,,Clear,80,2012-12-07 15:53:00
11:28 AM,75.2,64.4,69,29.98,10.0,ENE,3.5,-,N/A,,Mostly Cloudy,70,2012-12-07 16:28:00
11:53 AM,79.0,64.9,62,29.97,10.0,SE,4.6,-,N/A,,Scattered Clouds,130,2012-12-07 16:53:00
12:53 PM,80.1,63.0,56,29.94,10.0,South,6.9,-,N/A,,Scattered Clouds,170,2012-12-07 17:53:00
1:53 PM,81.0,62.1,52,29.91,10.0,SSW,5.8,-,N/A,,Scattered Clouds,210,2012-12-07 18:53:00
2:53 PM,81.0,63.0,54,29.90,10.0,WNW,8.1,-,N/A,,Clear,290,2012-12-07 19:53:00
3:53 PM,80.1,63.0,56,29.90,10.0,West,5.8,-,N/A,,Clear,260,2012-12-07 20:53:00
4:53 PM,78.1,57.9,50,29.91,10.0,West,10.4,-,N/A,,Mostly Cloudy,260,2012-12-07 21:53:00
5:53 PM,73.9,64.0,71,29.93,10.0,West,5.8,-,N/A,,Partly Cloudy,280,2012-12-07 22:53:00
6:53 PM,72.0,64.9,78,29.95,10.0,WNW,5.8,-,N/A,,Scattered Clouds,300,2012-12-07 23:53:00
8:53 PM,71.1,64.9,81,29.97,10.0,Calm,Calm,-,N/A,,Mostly Cloudy,0,2012-12-08 01:53:00
9:53 PM,70.0,66.9,90,29.98,10.0,SE,3.5,-,0.00,,Overcast,140,2012-12-08 02:53:00
10:53 PM,70.0,66.9,90,29.98,10.0,Calm,Calm,-,N/A,,Overcast,0,2012-12-08 03:53:00
11:53 PM,70.0,66.9,90,29.98,10.0,Calm,Calm,-,N/A,,Overcast,0,2012-12-08 04:53:00